Greensboro, NC

3:32 PM EDT on July 26, 2017 (GMT -0400)
Piedmont Triad International

Weather History for KGSO - August, 2013

Change the Weather History Date:

Friday, August 30, 2013

  Actual Average Record
Temperature  
Mean Temperature 77 °F 75 °F  
Max Temperature 86 °F 85 °F 100 °F (1932)
Min Temperature 68 °F 66 °F 45 °F (1986)
Degree Days  
Heating Degree Days 0 0  
Month to date heating degree days 2 0  
Since 1 June heating degree days 2 6  
Since 1 July heating degree days 2 0  
Cooling Degree Days 12 10  
Month to date cooling degree days 298 367  
Year to date cooling degree days 1147 1252  
Since 1 June cooling degree days 997 1093  
Growing Degree Days 27 (Base 50)    
Moisture  
Dew Point 66 °F    
Average Humidity 71    
Maximum Humidity 97    
Minimum Humidity 45    
Precipitation  
Precipitation 0.00 in 0.12 in 2.59 in (1964)
Month to date precipitation 5.63 3.75  
Year to date precipitation 38.37 28.66  
Sea Level Pressure  
Sea Level Pressure 30.02 in    
Wind  
Wind Speed 3 mph (SE)    
Max Wind Speed 9 mph    
Max Gust Speed 12 mph    
Visibility 8 miles    
Events      
T = Trace of Precipitation, MM = Missing Value Source: NWS Daily Summary

Daily Weather History Graph

Daily Weather History Graph

Search for Another Location

Airport or City:

Trip Planner

Search our weather history database for the weather conditions in past years. The results will help you decide how hot, cold, wet, or windy it might be!

Date:

Astronomy

Aug. 30, 2013 Rise Set
Actual Time 6:50 AM EDT 7:49 PM EDT
Civil Twilight 6:23 AM EDT 8:16 PM EDT
Nautical Twilight 5:52 AM EDT 8:47 PM EDT
Astronomical Twilight 5:20 AM EDT 9:19 PM EDT
Moon 1:32 AM EDT (8/30) 3:59 PM EDT (8/30)
Length of Visible Light 13h 52m
Length of Day
12h 59m
Waning Crescent, 29% of the Moon is Illuminated
Aug 30
Waning Crescent
Sep 5
New
Sep 12
First Quarter
Sep 19
Full
Sep 26
Last Quarter

Hourly Weather History & Observations

Time (EDT) Temp. Heat Index Dew Point Humidity Pressure Visibility Wind Dir Wind Speed Gust Speed Precip Events Conditions
12:54 AM 72.0 °F - 68.0 °F 87% 30.01 in 9.0 mi East 6.9 mph - N/A   Clear
1:54 AM 72.0 °F - 68.0 °F 87% 30.01 in 10.0 mi East 5.8 mph - N/A   Clear
2:54 AM 71.1 °F - 66.9 °F 87% 30.01 in 9.0 mi Calm Calm - N/A   Partly Cloudy
3:54 AM 70.0 °F - 66.9 °F 90% 30.01 in 9.0 mi Calm Calm - N/A   Clear
4:54 AM 69.1 °F - 66.9 °F 93% 30.01 in 5.0 mi NNE 3.5 mph - N/A   Clear
5:07 AM 69.8 °F - 66.2 °F 88% 30.04 in 5.0 mi North 3.5 mph - N/A   Mostly Cloudy
5:51 AM 68.0 °F - 66.2 °F 94% 30.05 in 5.0 mi Calm Calm - N/A   Partly Cloudy
5:54 AM 68.0 °F - 66.9 °F 96% 30.02 in 5.0 mi Calm Calm - N/A   Partly Cloudy
6:54 AM 69.1 °F - 66.9 °F 93% 30.04 in 5.0 mi Calm Calm - N/A   Mostly Cloudy
7:34 AM 69.8 °F - 66.2 °F 88% 30.08 in 2.5 mi Calm Calm - N/A   Overcast
7:54 AM 69.1 °F - 68.0 °F 96% 30.06 in 1.5 mi Variable 3.5 mph - N/A   Overcast
8:25 AM 69.8 °F - 68.0 °F 94% 30.09 in 1.0 mi Calm Calm - N/A   Overcast
8:54 AM 70.0 °F - 66.9 °F 90% 30.06 in 1.5 mi Calm Calm - N/A   Overcast
9:03 AM 69.8 °F - 68.0 °F 94% 30.09 in 3.0 mi Calm Calm - N/A   Mostly Cloudy
9:23 AM 73.4 °F - 66.2 °F 78% 30.10 in 7.0 mi ENE 3.5 mph - N/A   Mostly Cloudy
9:54 AM 73.9 °F - 66.9 °F 79% 30.06 in 9.0 mi East 3.5 mph - N/A   Mostly Cloudy
10:41 AM 77.0 °F - 66.2 °F 69% 30.09 in 10.0 mi Calm Calm - N/A   Mostly Cloudy
10:54 AM 75.9 °F - 66.9 °F 74% 30.06 in 10.0 mi East 3.5 mph - N/A   Mostly Cloudy
11:12 AM 77.0 °F - 66.2 °F 69% 30.09 in 10.0 mi East 4.6 mph - N/A   Mostly Cloudy
11:54 AM 79.0 °F - 66.9 °F 66% 30.05 in 10.0 mi East 5.8 mph - N/A   Scattered Clouds
12:54 PM 81.0 °F 82.7 °F 64.9 °F 58% 30.03 in 10.0 mi Calm Calm - N/A   Mostly Cloudy
1:54 PM 84.9 °F 86.1 °F 64.0 °F 49% 30.01 in 10.0 mi Calm Calm - N/A   Scattered Clouds
2:54 PM 84.9 °F 86.1 °F 64.0 °F 49% 29.99 in 10.0 mi South 5.8 mph - N/A   Scattered Clouds
3:54 PM 84.9 °F 85.4 °F 62.1 °F 46% 29.97 in 10.0 mi Variable 4.6 mph - N/A   Scattered Clouds
4:54 PM 84.9 °F 85.9 °F 63.0 °F 48% 29.95 in 10.0 mi Variable 3.5 mph - N/A   Mostly Cloudy
5:54 PM 86.0 °F 86.8 °F 63.0 °F 46% 29.94 in 10.0 mi NW 3.5 mph - N/A   Scattered Clouds
6:54 PM 82.0 °F 83.1 °F 63.0 °F 52% 29.94 in 10.0 mi South 6.9 mph - N/A   Scattered Clouds
7:54 PM 79.0 °F - 64.0 °F 60% 29.95 in 10.0 mi SSW 5.8 mph - N/A   Scattered Clouds
8:54 PM 75.9 °F - 64.0 °F 67% 29.96 in 10.0 mi South 4.6 mph - N/A   Partly Cloudy
9:54 PM 73.9 °F - 64.0 °F 71% 29.96 in 10.0 mi SSW 3.5 mph - N/A   Partly Cloudy
10:54 PM 73.0 °F - 64.0 °F 73% 29.96 in 10.0 mi South 4.6 mph - N/A   Partly Cloudy
11:54 PM 72.0 °F - 64.9 °F 78% 29.95 in 10.0 mi South 4.6 mph - N/A   Partly Cloudy